Regional Weather Roundup
Issued by NWS Wilmington, NC

Home | Current Version | Previous Version | Text Only | Print | Product List | Glossary On
Versions: 1 2 3 4 5 6 7 8 9 10 11 12 13 14 15 16 17 18 19 20 21 22 23 24 25 26 27
000
ASUS42 KILM 210112
RWRILM
RWRILM
REGIONAL HOURLY WEATHER ROUNDUP
NATIONAL WEATHER SERVICE WILMINGTON NC
800 PM EST MON FEB 20 2017

NOTE: "FAIR" INDICATES FEW OR NO CLOUDS BELOW 12,000 FEET WITH NO
SIGNIFICANT WEATHER AND/OR OBSTRUCTIONS TO VISIBILITY.

...............WFO WILMINGTON COUNTY WARNING AREA...............

......COASTAL NC AND SC COUNTIES......

CITY           SKY/WX    TMP DP  RH WIND       PRES   REMARKS
WILMINGTON     MOCLDY    54  50  86 E3        30.19S
N MYRTLE BEACH PTCLDY    58  52  80 E5        30.19R
MYRTLE BEACH   CLEAR     57  52  82 E7        30.20S

......INLAND NC AND SC COUNTIES.......

CITY           SKY/WX    TMP DP  RH WIND       PRES   REMARKS
LUMBERTON      PTCLDY    61  47  59 CALM      30.17S
ELIZABETHTOWN  CLOUDY    61  46  57 SE3       30.19R
WHITEVILLE     PTCLDY    62  46  56 S3        30.18S
FLORENCE       PTCLDY    61  49  64 CALM      30.18R
DARLINGTON     CLOUDY    59  53  80 CALM      30.18S
KINGSTREE      FAIR      59  46  63 E3        30.18S
HARTSVILLE     FAIR      61  45  55 CALM      30.17S
BENNETTSVILLE  NOT AVBL
CONWAY         FAIR      55  46  71 CALM      30.20R
GEORGETOWN     FAIR      55  54  94 E3        30.20R
MARION         FAIR      61  46  59 S6        30.18S

....................REST OF NORTH CAROLINA......................

.........EASTERN NC.........

CITY           SKY/WX    TMP DP  RH WIND       PRES   REMARKS
CAPE HATTERAS  CLEAR     52  41  66 NE6       30.21F
JACKSONVILLE   PTCLDY    53  46  77 CALM      30.21R
MOREHEAD CITY  PTCLDY    55  43  63 NE5       30.21S
KENANSVILLE    NOT AVBL
NEW BERN       PTCLDY    54  42  64 E6        30.22S
ELIZABETH CITY CLEAR     48  39  71 E6        30.24S

.........CENTRAL NC.........

CITY           SKY/WX    TMP DP  RH WIND       PRES   REMARKS
RALEIGH DURHAM MOCLDY    57  37  47 CALM      30.20S
ROCKY MOUNT    PTCLDY    53  43  68 CALM      30.20S
ROANOKE RAPIDS NOT AVBL
FAYETTEVILLE   PTCLDY    62  42  47 CALM      30.18S
HOFFMAN        CLOUDY    56  46  69 CALM      30.18R

.........WESTERN NC.........

CITY           SKY/WX    TMP DP  RH WIND       PRES   REMARKS
CHARLOTTE      MOCLDY    63  41  44 SE7       30.18S
GREENSBORO     CLOUDY    62  39  42 S5        30.19R
HICKORY        NOT AVBL
BOONE          NOT AVBL
ASHEVILLE      NOT AVBL

.....................REST OF SOUTH CAROLINA.....................

.........EASTERN SC.........

CITY           SKY/WX    TMP DP  RH WIND       PRES   REMARKS
CHARLESTON     PTCLDY    61  49  64 CALM      30.18R
BEAUFORT MCAS  PTCLDY    61  56  83 CALM      30.17R
HILTON HEAD    NOT AVBL

.........CENTRAL SC.........

CITY           SKY/WX    TMP DP  RH WIND       PRES   REMARKS
COLUMBIA       PTCLDY    60  48  64 CALM      30.16S
ORANGEBURG     PTCLDY    60  45  57 CALM      30.16S
SUMTER SHAW    CLOUDY    58  46  63 CALM      30.14F

.........WESTERN SC.........

CITY           SKY/WX    TMP DP  RH WIND       PRES   REMARKS
GREENVILLE     NOT AVBL
ROCK HILL      PTCLDY    57  43  59 CALM      30.18S
ANDERSON       CLOUDY    60  41  49 CALM      30.17R
CLEMSON        NOT AVBL
GREENWOOD      CLOUDY    56  41  57 CALM      30.18S


...................COASTAL AND OFFSHORE REPORTS..................

................LOCAL PIERS AND NC RESERVE................


STATION/POSITION TIME  SKY/WX   TEMP    WIND        PRES    VSBY
                                AIR SEA DIR/SP/G
                 (UTC)          (F)     (DEG/KT/KT) (MB)    (MI)
JOHNY MRCER PIER 0048            58 60   50/  5/  6 1021.3S
NC RESRV MASNBRO 2345            56      60/  2     1021.0
OCEAN CREST PIER NOT AVBL
SPRINGMAID  PIER 0048                               1021.6R


................COASTAL AND OFFSHORE BUOYS................


STATION/POSITION TIME  SKY/WX   TEMP    WIND        PRES    VSBY
                                AIR SEA DIR/SP/G
                 (UTC)          (F)     (DEG/KT/KT) (MB)    (MI)
DIMNDSHOAL 41025 0050            59 65   30/ 17/ 21 1022.9R
WVE H/P(F/S)=  4/ 5 SWL H/P/D(F/S/D)=  2/ 40/11

CAPE LOOKOUT     0100            57      50/ 13/ 15 1022.6S
ONSLOW BAY 41036 NOT AVBL
ONSLOW BAY 41064 0008            62      80/ 14/ 19 1022.6R
ONSLOW BAY 41159 0043               65                N/A
WVE H/P(F/S)=  4/ 6

MASNBO INL 41110 0059               56                N/A
WVE H/P(F/S)=  3/ 6

WILM HARBR 41108 0047               57                N/A
WVE H/P(F/S)=  2/ 5

27SE WRITB 41037 0008            62 62   90/ 12/ 17 1021.7R
FRYING PAN 41013 0100            66 65   70/ 10/ 12 1021.8
SUNST NRSH 41024 0008            58 56  110/  6/  8 1022.1R
CAPRS NRSH 41029 NOT AVBL
EDISTO     41004 0050            66 68   40/  8/  8 1021.4R
WVE H/P(F/S)=  2/ 4 SWL H/P/D(F/S/D)=  2/ 40/ 4



..........OFFSHORE BUOYS BEYOND 100 NM OFFSHORE...........
.....IN A TRIANGLE---HAT TO BERMUDA TO BAHAMAS TO HAT.....


STATION/POSITION TIME  SKY/WX   TEMP    WIND        PRES    VSBY
                                AIR SEA DIR/SP/G
                 (UTC)          (F)     (DEG/KT/KT) (MB)    (MI)
150E HAT   41001 NOT AVBL
W BERMUDA  41048 0050            68 69  360/ 19/ 21 1016.4R
WVE H/P(F/S)=  5/ 7 SWL H/P/D(F/S/D)=  2/14

ATLANTIC S 41049 0050            71 72  140/  8/ 10 1013.9R
WVE H/P(F/S)=  4/ 9 SWL H/P/D(F/S/D)=  3/ 50/ 9

E BAHAMAS  41046 0100            75 77  330/ 14/ 17 1015.3
NE BAHAMAS 41047 0100            71 74  360/ 19/ 23 1015.3
120E CANVRL41010 NOT AVBL

END




USA.gov is the U.S. government's official web portal to all federal, state and local government web resources and services.